Time,TemperatureF,DewpointF,PressureIn,WindDirection,WindDirectionDegrees,WindSpeedMPH,WindSpeedGustMPH,Humidity,HourlyPrecipIn,Conditions,Clouds,dailyrainin,SoftwareType,DateUTC
2013-01-15 00:04:00,41.5,36.5,28.02,East,90,0.9,1.6,82,0.00,,,0.00,WSDL version 420,2013-01-15 05:04:00,
2013-01-15 00:09:00,41.5,36.5,28.02,ENE,68,0.0,1.6,82,0.00,,,0.00,WSDL version 420,2013-01-15 05:09:00,
2013-01-15 00:14:00,41.5,36.7,28.02,ENE,68,0.0,0.0,83,0.00,,,0.00,WSDL version 420,2013-01-15 05:14:00,
2013-01-15 00:19:00,41.4,36.7,28.02,ENE,68,0.0,0.0,83,0.00,,,0.00,WSDL version 420,2013-01-15 05:19:00,
2013-01-15 00:24:00,41.5,36.8,27.99,NE,53,0.0,0.0,83,0.00,,,0.00,WSDL version 420,2013-01-15 05:24:00,
2013-01-15 00:31:00,41.4,36.7,27.99,ESE,120,0.3,0.9,83,0.00,,,0.00,WSDL version 420,2013-01-15 05:31:00,
2013-01-15 00:41:00,41.5,36.9,27.99,ENE,68,0.0,1.6,83,0.00,,,0.00,WSDL version 420,2013-01-15 05:41:00,
2013-01-15 00:46:00,41.6,37.0,27.99,ENE,68,0.0,0.0,83,0.00,,,0.00,WSDL version 420,2013-01-15 05:46:00,
2013-01-15 00:51:00,41.5,37.0,27.99,ENE,68,0.0,0.0,84,0.04,,,0.04,WSDL version 420,2013-01-15 05:51:00,
2013-01-15 00:56:00,41.5,37.1,27.99,NNE,23,0.0,0.0,84,0.04,,,0.04,WSDL version 420,2013-01-15 05:56:00,
2013-01-15 01:01:00,41.5,37.2,27.99,ESE,113,0.0,1.3,84,0.04,,,0.04,WSDL version 420,2013-01-15 06:01:00,
2013-01-15 01:06:00,41.7,37.4,27.99,East,90,0.0,1.3,84,0.04,,,0.04,WSDL version 420,2013-01-15 06:06:00,
2013-01-15 01:11:00,41.9,37.6,27.99,East,90,0.0,0.9,84,0.04,,,0.04,WSDL version 420,2013-01-15 06:11:00,
2013-01-15 01:16:00,41.8,37.5,27.99,ESE,113,0.0,0.0,84,0.04,,,0.04,WSDL version 420,2013-01-15 06:16:00,
2013-01-15 01:21:00,41.5,37.2,27.99,ESE,113,0.0,0.0,84,0.04,,,0.04,WSDL version 420,2013-01-15 06:21:00,
2013-01-15 01:26:00,41.6,37.3,27.96,South,173,0.0,0.0,84,0.04,,,0.04,WSDL version 420,2013-01-15 06:26:00,
2013-01-15 01:31:00,41.8,37.4,27.96,ESE,105,1.0,1.6,84,0.04,,,0.04,WSDL version 420,2013-01-15 06:31:00,
2013-01-15 01:36:00,41.8,37.5,27.96,WSW,248,0.0,1.6,84,0.04,,,0.04,WSDL version 420,2013-01-15 06:36:00,
2013-01-15 01:41:00,42.0,37.7,27.99,SW,233,0.0,0.0,84,0.04,,,0.04,WSDL version 420,2013-01-15 06:41:00,
2013-01-15 01:46:00,41.9,37.6,27.99,South,171,0.0,3.1,84,0.04,,,0.04,WSDL version 420,2013-01-15 06:46:00,
2013-01-15 01:51:00,42.1,38.1,27.99,SSE,150,0.5,3.1,86,0.00,,,0.04,WSDL version 420,2013-01-15 06:51:00,
2013-01-15 01:57:00,42.1,38.1,27.96,ESE,113,0.4,2.5,86,0.00,,,0.04,WSDL version 420,2013-01-15 06:57:00,
2013-01-15 02:02:00,42.1,38.1,27.96,East,96,0.0,2.5,86,0.00,,,0.04,WSDL version 420,2013-01-15 07:02:00,
2013-01-15 02:07:00,42.1,38.1,27.96,East,90,0.0,2.2,86,0.00,,,0.04,WSDL version 420,2013-01-15 07:07:00,
2013-01-15 02:12:00,42.1,38.1,27.96,ENE,68,0.0,0.0,86,0.00,,,0.04,WSDL version 420,2013-01-15 07:12:00,
2013-01-15 02:17:00,42.1,38.1,27.96,East,98,0.0,0.0,86,0.00,,,0.04,WSDL version 420,2013-01-15 07:17:00,
2013-01-15 02:22:00,42.1,38.1,27.96,SSE,158,0.0,0.0,86,0.00,,,0.04,WSDL version 420,2013-01-15 07:22:00,
2013-01-15 02:27:00,42.0,38.0,27.96,ESE,118,1.5,2.9,86,0.00,,,0.04,WSDL version 420,2013-01-15 07:27:00,
2013-01-15 02:32:00,41.8,37.8,27.96,SSE,158,0.0,2.9,86,0.00,,,0.04,WSDL version 420,2013-01-15 07:32:00,
2013-01-15 02:37:00,42.0,38.0,27.96,ESE,113,0.0,1.6,86,0.00,,,0.04,WSDL version 420,2013-01-15 07:37:00,
2013-01-15 02:42:00,42.1,38.1,27.94,ESE,113,0.0,1.1,86,0.00,,,0.04,WSDL version 420,2013-01-15 07:42:00,
2013-01-15 02:47:00,42.1,38.1,27.94,SSE,158,1.0,1.6,86,0.00,,,0.04,WSDL version 420,2013-01-15 07:47:00,
2013-01-15 02:52:00,42.3,38.3,27.94,SE,141,0.8,1.6,86,0.00,,,0.04,WSDL version 420,2013-01-15 07:52:00,
2013-01-15 02:57:00,42.4,38.3,27.94,ESE,120,0.3,1.1,86,0.00,,,0.04,WSDL version 420,2013-01-15 07:57:00,
2013-01-15 03:02:00,42.4,38.4,27.94,ESE,105,0.0,1.1,86,0.04,,,0.08,WSDL version 420,2013-01-15 08:02:00,
2013-01-15 03:07:00,42.4,38.6,27.94,NE,53,0.0,0.0,87,0.04,,,0.08,WSDL version 420,2013-01-15 08:07:00,
2013-01-15 03:12:00,42.6,38.9,27.94,SE,135,0.0,0.0,87,0.04,,,0.08,WSDL version 420,2013-01-15 08:12:00,
2013-01-15 03:17:00,42.6,38.9,27.94,SSE,165,1.6,2.5,87,0.04,,,0.08,WSDL version 420,2013-01-15 08:17:00,
2013-01-15 03:24:00,42.9,39.2,27.94,SE,135,0.5,2.5,87,0.04,,,0.08,WSDL version 420,2013-01-15 08:24:00,
2013-01-15 03:29:00,43.0,39.3,27.94,West,263,0.3,2.0,87,0.04,,,0.08,WSDL version 420,2013-01-15 08:29:00,
2013-01-15 03:34:00,42.9,39.2,27.94,NNW,338,0.0,0.9,87,0.04,,,0.08,WSDL version 420,2013-01-15 08:34:00,
2013-01-15 03:39:00,42.8,39.1,27.94,SW,236,0.0,0.0,87,0.04,,,0.08,WSDL version 420,2013-01-15 08:39:00,
2013-01-15 03:44:00,42.9,39.2,27.94,South,188,0.0,0.9,87,0.04,,,0.08,WSDL version 420,2013-01-15 08:44:00,
2013-01-15 03:49:00,42.9,39.2,27.94,South,173,0.9,1.3,87,0.04,,,0.08,WSDL version 420,2013-01-15 08:49:00,
2013-01-15 03:54:00,43.0,39.3,27.94,SE,146,0.0,1.3,87,0.08,,,0.12,WSDL version 420,2013-01-15 08:54:00,
2013-01-15 03:59:00,43.0,39.3,27.94,ESE,113,0.0,1.1,87,0.08,,,0.12,WSDL version 420,2013-01-15 08:59:00,
2013-01-15 04:04:00,43.3,39.6,27.94,ESE,113,0.0,0.0,87,0.04,,,0.12,WSDL version 420,2013-01-15 09:04:00,
2013-01-15 04:09:00,43.3,39.6,27.94,ESE,113,0.0,0.0,87,0.04,,,0.12,WSDL version 420,2013-01-15 09:09:00,
2013-01-15 04:14:00,43.4,39.9,27.94,SW,218,0.0,0.0,88,0.04,,,0.12,WSDL version 420,2013-01-15 09:14:00,
2013-01-15 04:19:00,43.6,40.2,27.94,East,90,0.0,0.0,88,0.04,,,0.12,WSDL version 420,2013-01-15 09:19:00,
2013-01-15 04:24:00,43.7,40.3,27.94,SSW,203,0.0,0.9,88,0.09,,,0.17,WSDL version 420,2013-01-15 09:24:00,
2013-01-15 04:29:00,43.5,40.1,27.94,ENE,68,0.0,0.9,88,0.09,,,0.17,WSDL version 420,2013-01-15 09:29:00,
2013-01-15 04:34:00,43.5,40.1,27.94,ENE,68,0.0,0.0,88,0.09,,,0.17,WSDL version 420,2013-01-15 09:34:00,
2013-01-15 04:39:00,43.6,40.2,27.94,ENE,68,0.0,0.0,88,0.09,,,0.17,WSDL version 420,2013-01-15 09:39:00,
2013-01-15 04:44:00,43.9,40.5,27.94,SSE,150,0.0,0.0,88,0.09,,,0.17,WSDL version 420,2013-01-15 09:44:00,
2013-01-15 04:49:00,44.1,40.7,27.94,SE,143,0.0,0.0,88,0.13,,,0.21,WSDL version 420,2013-01-15 09:49:00,
2013-01-15 04:54:00,44.2,40.8,27.91,SSW,203,0.0,0.0,88,0.09,,,0.21,WSDL version 420,2013-01-15 09:54:00,
2013-01-15 04:59:00,44.2,40.9,27.91,SSW,203,0.0,0.0,88,0.09,,,0.21,WSDL version 420,2013-01-15 09:59:00,
2013-01-15 05:04:00,44.2,40.9,27.91,SSW,203,0.0,0.0,88,0.09,,,0.21,WSDL version 420,2013-01-15 10:04:00,
2013-01-15 05:09:00,44.3,41.1,27.91,South,180,0.0,0.0,89,0.09,,,0.21,WSDL version 420,2013-01-15 10:09:00,
2013-01-15 05:14:00,44.5,41.3,27.91,SSE,158,1.0,1.1,89,0.13,,,0.25,WSDL version 420,2013-01-15 10:14:00,
2013-01-15 05:19:00,44.6,41.2,27.91,SE,128,0.0,1.1,88,0.13,,,0.25,WSDL version 420,2013-01-15 10:19:00,
2013-01-15 05:24:00,44.7,41.4,27.91,SSE,158,0.0,2.2,89,0.08,,,0.25,WSDL version 420,2013-01-15 10:24:00,
2013-01-15 05:29:00,44.8,41.7,27.91,SSE,158,0.0,2.2,89,0.12,,,0.29,WSDL version 420,2013-01-15 10:29:00,
2013-01-15 05:34:00,44.8,41.7,27.91,SSE,158,0.0,0.0,89,0.12,,,0.29,WSDL version 420,2013-01-15 10:34:00,
2013-01-15 05:39:00,45.0,41.9,27.94,SSE,158,0.0,0.0,89,0.16,,,0.33,WSDL version 420,2013-01-15 10:39:00,
2013-01-15 05:44:00,45.1,42.0,27.94,East,90,0.0,0.0,89,0.20,,,0.37,WSDL version 420,2013-01-15 10:44:00,
2013-01-15 05:49:00,45.1,42.2,27.94,SSE,158,0.0,1.3,90,0.16,,,0.37,WSDL version 420,2013-01-15 10:49:00,
2013-01-15 05:54:00,45.3,42.5,27.94,SSE,158,0.0,1.3,90,0.16,,,0.37,WSDL version 420,2013-01-15 10:54:00,
2013-01-15 05:59:00,45.3,42.6,27.94,SE,135,0.0,0.0,90,0.20,,,0.41,WSDL version 420,2013-01-15 10:59:00,
2013-01-15 06:04:00,45.3,42.6,27.94,East,101,0.0,0.0,90,0.20,,,0.41,WSDL version 420,2013-01-15 11:04:00,
2013-01-15 06:09:00,45.3,42.7,27.94,ESE,113,0.0,0.0,91,0.25,,,0.46,WSDL version 420,2013-01-15 11:09:00,
2013-01-15 06:14:00,45.3,42.9,27.94,NE,45,0.0,1.1,91,0.21,,,0.46,WSDL version 420,2013-01-15 11:14:00,
2013-01-15 06:19:00,45.3,42.9,27.94,SSE,158,0.6,2.0,91,0.25,,,0.50,WSDL version 420,2013-01-15 11:19:00,
2013-01-15 06:29:00,45.4,42.9,27.94,SSE,158,0.0,1.1,91,0.25,,,0.54,WSDL version 420,2013-01-15 11:29:00,
2013-01-15 06:34:00,45.5,43.1,27.94,SE,124,0.0,0.0,91,0.25,,,0.54,WSDL version 420,2013-01-15 11:34:00,
2013-01-15 06:39:00,45.4,43.0,27.94,ESE,113,0.0,0.0,91,0.21,,,0.54,WSDL version 420,2013-01-15 11:39:00,
2013-01-15 06:44:00,45.5,43.1,27.94,SE,128,0.0,0.0,91,0.21,,,0.58,WSDL version 420,2013-01-15 11:44:00,
2013-01-15 06:49:00,45.5,43.1,27.94,ESE,105,0.0,0.0,91,0.21,,,0.58,WSDL version 420,2013-01-15 11:49:00,
2013-01-15 06:54:00,45.5,43.1,27.94,East,98,0.0,0.0,91,0.21,,,0.58,WSDL version 420,2013-01-15 11:54:00,
2013-01-15 06:59:00,45.4,42.9,27.94,ESE,113,0.0,0.0,91,0.17,,,0.58,WSDL version 420,2013-01-15 11:59:00,
2013-01-15 07:04:00,45.5,43.1,27.94,ESE,113,0.0,0.0,91,0.17,,,0.58,WSDL version 420,2013-01-15 12:04:00,
2013-01-15 07:09:00,45.5,43.2,27.96,East,90,0.0,0.0,92,0.16,,,0.62,WSDL version 420,2013-01-15 12:09:00,
2013-01-15 07:14:00,45.7,43.6,27.96,WNW,293,0.0,0.0,92,0.16,,,0.62,WSDL version 420,2013-01-15 12:14:00,
2013-01-15 07:19:00,45.6,43.5,27.96,ENE,75,0.5,1.6,92,0.12,,,0.62,WSDL version 420,2013-01-15 12:19:00,
2013-01-15 07:24:00,45.7,43.6,27.94,SSE,158,1.1,2.2,92,0.12,,,0.62,WSDL version 420,2013-01-15 12:24:00,
2013-01-15 07:29:00,45.7,43.6,27.94,ESE,113,0.0,2.2,92,0.08,,,0.62,WSDL version 420,2013-01-15 12:29:00,
2013-01-15 07:34:00,45.7,43.6,27.94,South,174,0.0,0.9,92,0.12,,,0.66,WSDL version 420,2013-01-15 12:34:00,
2013-01-15 07:39:00,45.7,43.6,27.96,SSW,203,0.0,0.0,92,0.12,,,0.66,WSDL version 420,2013-01-15 12:39:00,
2013-01-15 07:44:00,45.7,43.6,27.96,West,278,0.0,0.0,92,0.08,,,0.66,WSDL version 420,2013-01-15 12:44:00,
2013-01-15 07:49:00,45.6,43.5,27.96,WSW,248,0.0,0.0,92,0.08,,,0.66,WSDL version 420,2013-01-15 12:49:00,
2013-01-15 07:54:00,45.4,43.2,27.96,NE,51,0.0,0.0,91,0.08,,,0.66,WSDL version 420,2013-01-15 12:54:00,
2013-01-15 07:59:00,45.4,43.0,27.96,North,360,1.3,1.3,91,0.08,,,0.66,WSDL version 420,2013-01-15 12:59:00,
2013-01-15 08:04:00,45.1,42.7,27.96,SE,131,0.0,1.3,91,0.12,,,0.70,WSDL version 420,2013-01-15 13:04:00,
2013-01-15 08:09:00,45.0,42.6,27.96,ESE,113,0.0,0.0,91,0.08,,,0.70,WSDL version 420,2013-01-15 13:09:00,
2013-01-15 08:14:00,45.1,42.6,27.96,SSE,158,0.0,0.0,91,0.08,,,0.70,WSDL version 420,2013-01-15 13:14:00,
2013-01-15 08:19:00,45.1,42.7,27.96,SE,128,0.0,0.0,91,0.08,,,0.70,WSDL version 420,2013-01-15 13:19:00,
2013-01-15 08:24:00,45.0,42.5,27.96,ESE,113,0.0,0.0,91,0.08,,,0.70,WSDL version 420,2013-01-15 13:24:00,
2013-01-15 08:29:00,45.1,42.6,27.96,SSE,158,0.3,1.3,91,0.08,,,0.70,WSDL version 420,2013-01-15 13:29:00,
2013-01-15 08:34:00,45.1,42.7,27.96,NNW,345,1.8,3.1,91,0.04,,,0.70,WSDL version 420,2013-01-15 13:34:00,
2013-01-15 08:39:00,44.8,42.4,27.99,ESE,113,0.7,3.1,91,0.04,,,0.70,WSDL version 420,2013-01-15 13:39:00,
2013-01-15 08:44:00,44.8,42.3,27.99,SSE,158,0.0,1.3,91,0.04,,,0.70,WSDL version 420,2013-01-15 13:44:00,
2013-01-15 08:49:00,44.8,42.3,27.99,WNW,293,0.0,1.3,91,0.08,,,0.74,WSDL version 420,2013-01-15 13:49:00,
2013-01-15 08:54:00,44.7,42.2,27.99,WNW,293,0.0,0.0,91,0.08,,,0.74,WSDL version 420,2013-01-15 13:54:00,
2013-01-15 08:59:00,44.5,42.1,27.99,WNW,293,0.0,0.0,91,0.08,,,0.74,WSDL version 420,2013-01-15 13:59:00,
2013-01-15 09:04:00,44.6,42.2,27.99,WSW,242,0.0,0.0,91,0.04,,,0.74,WSDL version 420,2013-01-15 14:04:00,
2013-01-15 09:09:00,44.7,42.3,27.99,SW,231,0.0,0.9,91,0.04,,,0.74,WSDL version 420,2013-01-15 14:09:00,
2013-01-15 09:14:00,44.8,42.2,27.99,NNE,23,0.0,0.9,90,0.04,,,0.74,WSDL version 420,2013-01-15 14:14:00,
2013-01-15 09:19:00,44.8,42.0,27.99,South,173,0.6,1.3,90,0.04,,,0.74,WSDL version 420,2013-01-15 14:19:00,
2013-01-15 09:24:00,44.8,42.0,27.99,WSW,248,0.0,1.3,90,0.04,,,0.74,WSDL version 420,2013-01-15 14:24:00,
2013-01-15 09:29:00,44.8,42.0,27.99,SW,231,0.0,0.0,90,0.04,,,0.74,WSDL version 420,2013-01-15 14:29:00,
2013-01-15 09:34:00,44.8,42.1,27.99,SSW,203,0.0,0.0,90,0.04,,,0.74,WSDL version 420,2013-01-15 14:34:00,
2013-01-15 09:39:00,44.8,42.0,27.99,SSW,203,0.4,1.3,90,0.04,,,0.74,WSDL version 420,2013-01-15 14:39:00,
2013-01-15 09:44:00,44.8,42.0,27.99,NNE,30,0.3,2.0,90,0.09,,,0.79,WSDL version 420,2013-01-15 14:44:00,
2013-01-15 09:49:00,44.8,42.1,27.99,NE,45,0.0,2.0,90,0.05,,,0.79,WSDL version 420,2013-01-15 14:49:00,
2013-01-15 09:54:00,45.1,42.3,27.99,SE,135,0.0,0.0,90,0.05,,,0.79,WSDL version 420,2013-01-15 14:54:00,
2013-01-15 09:59:00,45.2,42.4,27.99,SSE,153,0.0,0.0,90,0.05,,,0.79,WSDL version 420,2013-01-15 14:59:00,
2013-01-15 10:04:00,45.3,42.6,27.99,SSE,158,0.0,0.0,90,0.05,,,0.79,WSDL version 420,2013-01-15 15:04:00,
2013-01-15 10:09:00,45.2,42.4,27.99,SE,128,0.0,0.0,90,0.05,,,0.79,WSDL version 420,2013-01-15 15:09:00,
2013-01-15 10:14:00,45.1,42.4,27.99,South,173,0.0,0.0,90,0.05,,,0.79,WSDL version 420,2013-01-15 15:14:00,
2013-01-15 10:19:00,45.3,42.5,27.99,ESE,113,0.0,0.9,90,0.09,,,0.83,WSDL version 420,2013-01-15 15:19:00,
2013-01-15 10:24:00,45.3,42.6,27.96,ESE,113,0.0,0.9,90,0.09,,,0.83,WSDL version 420,2013-01-15 15:24:00,
2013-01-15 10:29:00,45.5,42.7,27.96,ESE,113,0.0,0.0,90,0.09,,,0.83,WSDL version 420,2013-01-15 15:29:00,
2013-01-15 10:34:00,45.5,42.7,27.96,WSW,248,0.0,0.9,90,0.09,,,0.83,WSDL version 420,2013-01-15 15:34:00,
2013-01-15 10:39:00,45.5,42.7,27.99,WNW,300,0.0,0.9,90,0.09,,,0.83,WSDL version 420,2013-01-15 15:39:00,
2013-01-15 10:44:00,45.4,42.6,27.99,NNW,345,0.9,1.6,90,0.04,,,0.83,WSDL version 420,2013-01-15 15:44:00,
2013-01-15 10:49:00,45.3,42.6,27.99,NNW,345,1.5,2.2,90,0.04,,,0.83,WSDL version 420,2013-01-15 15:49:00,
2013-01-15 10:54:00,45.3,42.6,27.99,North,353,1.6,2.2,90,0.04,,,0.83,WSDL version 420,2013-01-15 15:54:00,
2013-01-15 10:59:00,45.1,42.4,27.99,NW,311,1.0,2.0,90,0.04,,,0.83,WSDL version 420,2013-01-15 15:59:00,
2013-01-15 11:04:00,45.0,42.1,27.99,NNW,338,0.0,2.0,89,0.04,,,0.83,WSDL version 420,2013-01-15 16:04:00,
2013-01-15 11:09:00,44.8,41.7,27.99,WSW,248,0.0,0.0,89,0.04,,,0.83,WSDL version 420,2013-01-15 16:09:00,
2013-01-15 11:14:00,44.8,41.7,27.99,WSW,248,0.0,0.0,89,0.04,,,0.83,WSDL version 420,2013-01-15 16:14:00,
2013-01-15 11:19:00,44.7,41.9,27.99,ESE,113,1.4,2.5,90,0.04,,,0.87,WSDL version 420,2013-01-15 16:19:00,
2013-01-15 11:24:00,44.6,41.7,27.99,South,180,1.1,2.5,89,0.04,,,0.87,WSDL version 420,2013-01-15 16:24:00,
2013-01-15 11:29:00,44.5,41.6,27.99,South,191,0.0,2.2,90,0.04,,,0.87,WSDL version 420,2013-01-15 16:29:00,
2013-01-15 11:34:00,44.6,41.5,27.99,ESE,113,0.0,0.0,89,0.04,,,0.87,WSDL version 420,2013-01-15 16:34:00,
2013-01-15 11:39:00,44.7,41.6,27.96,ESE,113,0.0,0.0,89,0.04,,,0.87,WSDL version 420,2013-01-15 16:39:00,
2013-01-15 11:44:00,44.8,41.8,27.96,ESE,113,0.0,0.0,89,0.04,,,0.87,WSDL version 420,2013-01-15 16:44:00,
2013-01-15 11:49:00,45.0,41.9,27.96,East,90,0.7,1.1,89,0.04,,,0.87,WSDL version 420,2013-01-15 16:49:00,
2013-01-15 11:54:00,45.0,41.9,27.96,ESE,113,0.0,1.1,89,0.04,,,0.87,WSDL version 420,2013-01-15 16:54:00,
2013-01-15 11:59:00,45.1,42.1,27.96,ESE,113,0.0,1.1,89,0.04,,,0.87,WSDL version 420,2013-01-15 16:59:00,
2013-01-15 12:04:00,45.1,42.0,27.96,ESE,113,0.0,0.0,89,0.04,,,0.87,WSDL version 420,2013-01-15 17:04:00,
2013-01-15 12:09:00,45.1,42.4,27.94,ESE,113,0.0,0.0,90,0.04,,,0.87,WSDL version 420,2013-01-15 17:09:00,
2013-01-15 12:14:00,45.3,42.6,27.94,ESE,113,0.0,0.0,90,0.04,,,0.87,WSDL version 420,2013-01-15 17:14:00,
2013-01-15 12:19:00,45.4,42.7,27.94,ESE,113,0.0,0.0,90,0.00,,,0.87,WSDL version 420,2013-01-15 17:19:00,
2013-01-15 12:24:00,45.6,42.8,27.94,ESE,113,0.0,1.1,90,0.00,,,0.87,WSDL version 420,2013-01-15 17:24:00,
2013-01-15 12:29:00,45.9,43.1,27.94,SSE,165,0.4,1.3,90,0.00,,,0.87,WSDL version 420,2013-01-15 17:29:00,
2013-01-15 12:34:00,46.0,43.2,27.94,SSE,158,0.0,1.3,90,0.04,,,0.91,WSDL version 420,2013-01-15 17:34:00,
2013-01-15 12:39:00,46.0,43.4,27.94,ESE,113,0.0,0.0,91,0.04,,,0.91,WSDL version 420,2013-01-15 17:39:00,
2013-01-15 12:44:00,46.0,43.6,27.94,East,90,0.0,0.0,91,0.04,,,0.91,WSDL version 420,2013-01-15 17:44:00,
2013-01-15 12:49:00,46.0,43.6,27.94,East,90,0.0,0.0,91,0.04,,,0.91,WSDL version 420,2013-01-15 17:49:00,
2013-01-15 12:54:00,46.1,43.7,27.94,SW,218,0.6,1.3,91,0.04,,,0.91,WSDL version 420,2013-01-15 17:54:00,
2013-01-15 12:59:00,46.5,44.1,27.94,NNE,23,1.2,2.0,91,0.04,,,0.91,WSDL version 420,2013-01-15 17:59:00,
2013-01-15 13:04:00,46.8,44.3,27.94,SSE,158,0.0,2.0,91,0.08,,,0.95,WSDL version 420,2013-01-15 18:04:00,
2013-01-15 13:09:00,46.9,44.4,27.91,ENE,68,0.0,0.9,91,0.08,,,0.95,WSDL version 420,2013-01-15 18:09:00,
2013-01-15 13:14:00,46.9,44.8,27.91,NNE,23,0.5,2.0,92,0.08,,,0.95,WSDL version 420,2013-01-15 18:14:00,
2013-01-15 13:19:00,46.9,44.6,27.91,WSW,248,0.0,2.0,91,0.08,,,0.95,WSDL version 420,2013-01-15 18:19:00,
2013-01-15 13:24:00,46.9,44.8,27.91,East,83,0.0,2.2,92,0.08,,,0.95,WSDL version 420,2013-01-15 18:24:00,
2013-01-15 13:29:00,47.0,44.9,27.91,East,90,1.6,2.7,92,0.08,,,0.95,WSDL version 420,2013-01-15 18:29:00,
2013-01-15 13:34:00,47.1,45.0,27.91,East,98,1.0,2.7,92,0.04,,,0.95,WSDL version 420,2013-01-15 18:34:00,
2013-01-15 13:39:00,47.2,45.0,27.91,SE,124,0.0,1.1,92,0.04,,,0.95,WSDL version 420,2013-01-15 18:39:00,
2013-01-15 13:44:00,47.3,45.2,27.91,SSW,210,0.0,0.9,92,0.04,,,0.95,WSDL version 420,2013-01-15 18:44:00,
2013-01-15 13:49:00,47.2,45.0,27.91,ESE,113,0.0,0.0,92,0.04,,,0.95,WSDL version 420,2013-01-15 18:49:00,
2013-01-15 13:54:00,47.1,45.0,27.91,NE,53,0.3,1.6,92,0.04,,,0.95,WSDL version 420,2013-01-15 18:54:00,
2013-01-15 13:59:00,47.3,45.2,27.91,ESE,113,0.3,1.6,92,0.09,,,1.00,WSDL version 420,2013-01-15 18:59:00,
2013-01-15 14:04:00,47.2,45.0,27.91,SSE,152,1.1,1.3,92,0.05,,,1.00,WSDL version 420,2013-01-15 19:04:00,
2013-01-15 14:14:00,47.3,45.2,27.91,ENE,68,0.4,1.6,92,0.05,,,1.00,WSDL version 420,2013-01-15 19:14:00,
2013-01-15 14:19:00,47.3,45.2,27.91,ESE,118,0.7,1.3,92,0.05,,,1.00,WSDL version 420,2013-01-15 19:19:00,
2013-01-15 14:24:00,47.3,45.1,27.88,SE,128,1.3,2.0,91,0.05,,,1.00,WSDL version 420,2013-01-15 19:24:00,
2013-01-15 14:29:00,47.3,44.8,27.88,ENE,68,0.3,2.0,91,0.05,,,1.00,WSDL version 420,2013-01-15 19:29:00,
2013-01-15 14:34:00,47.3,44.9,27.88,SSE,158,0.0,1.3,92,0.05,,,1.00,WSDL version 420,2013-01-15 19:34:00,
2013-01-15 14:39:00,47.3,45.2,27.88,ESE,113,0.7,1.3,92,0.05,,,1.00,WSDL version 420,2013-01-15 19:39:00,
2013-01-15 14:44:00,47.3,45.2,27.88,SE,135,1.6,2.7,92,0.05,,,1.00,WSDL version 420,2013-01-15 19:44:00,
2013-01-15 14:49:00,47.3,44.8,27.88,NNW,338,0.0,2.7,91,0.05,,,1.00,WSDL version 420,2013-01-15 19:49:00,
2013-01-15 14:54:00,47.1,44.6,27.88,ENE,68,0.0,1.3,91,0.05,,,1.00,WSDL version 420,2013-01-15 19:54:00,
2013-01-15 14:59:00,46.9,44.5,27.88,ESE,107,0.4,1.6,91,0.04,,,1.04,WSDL version 420,2013-01-15 19:59:00,
2013-01-15 15:04:00,46.9,44.7,27.88,SSE,150,0.0,1.6,92,0.04,,,1.04,WSDL version 420,2013-01-15 20:04:00,
2013-01-15 15:09:00,46.9,44.8,27.88,ESE,113,0.0,0.0,92,0.04,,,1.04,WSDL version 420,2013-01-15 20:09:00,
2013-01-15 15:14:00,46.9,44.8,27.88,East,101,0.8,1.3,92,0.08,,,1.08,WSDL version 420,2013-01-15 20:14:00,
2013-01-15 15:24:00,46.9,44.8,27.88,WSW,248,0.0,2.7,92,0.08,,,1.08,WSDL version 420,2013-01-15 20:24:00,
2013-01-15 15:29:00,46.7,44.6,27.88,SE,124,0.3,2.7,92,0.08,,,1.08,WSDL version 420,2013-01-15 20:29:00,
2013-01-15 15:34:00,46.6,44.4,27.88,NE,45,0.0,1.3,92,0.12,,,1.12,WSDL version 420,2013-01-15 20:34:00,
2013-01-15 15:39:00,46.6,44.4,27.88,SE,131,0.5,1.3,92,0.12,,,1.12,WSDL version 420,2013-01-15 20:39:00,
2013-01-15 15:44:00,46.4,44.3,27.88,East,98,0.3,1.3,92,0.12,,,1.12,WSDL version 420,2013-01-15 20:44:00,
2013-01-15 15:49:00,46.4,44.3,27.88,South,186,1.2,2.5,92,0.16,,,1.16,WSDL version 420,2013-01-15 20:49:00,
2013-01-15 15:54:00,46.4,44.3,27.88,East,90,0.5,2.5,92,0.16,,,1.16,WSDL version 420,2013-01-15 20:54:00,
2013-01-15 15:59:00,46.5,44.4,27.88,SSE,150,0.0,1.6,92,0.12,,,1.16,WSDL version 420,2013-01-15 20:59:00,
2013-01-15 16:04:00,46.6,44.6,27.88,NW,308,0.9,0.9,93,0.12,,,1.16,WSDL version 420,2013-01-15 21:04:00,
2013-01-15 16:14:00,46.6,44.8,27.88,ESE,105,0.0,2.7,93,0.12,,,1.20,WSDL version 420,2013-01-15 21:14:00,
2013-01-15 16:19:00,46.7,44.9,27.88,South,180,0.0,0.0,93,0.12,,,1.20,WSDL version 420,2013-01-15 21:19:00,
2013-01-15 16:24:00,46.6,44.8,27.88,East,90,0.3,1.1,93,0.12,,,1.20,WSDL version 420,2013-01-15 21:24:00,
2013-01-15 16:29:00,46.6,44.8,27.88,ESE,113,0.7,1.1,93,0.12,,,1.20,WSDL version 420,2013-01-15 21:29:00,
2013-01-15 16:34:00,46.8,44.9,27.88,East,90,0.0,1.1,93,0.12,,,1.24,WSDL version 420,2013-01-15 21:34:00,
2013-01-15 16:39:00,46.8,44.9,27.88,NE,34,0.0,0.9,93,0.12,,,1.24,WSDL version 420,2013-01-15 21:39:00,
2013-01-15 16:44:00,46.8,44.9,27.88,SSE,158,0.4,0.9,93,0.12,,,1.24,WSDL version 420,2013-01-15 21:44:00,
2013-01-15 16:54:00,46.6,44.8,27.88,NE,38,0.0,0.0,93,0.08,,,1.24,WSDL version 420,2013-01-15 21:54:00,
2013-01-15 16:59:00,46.6,44.8,27.88,ESE,118,0.0,0.0,93,0.08,,,1.24,WSDL version 420,2013-01-15 21:59:00,
2013-01-15 17:09:00,46.5,44.6,27.85,ENE,68,0.5,1.3,93,0.04,,,1.24,WSDL version 420,2013-01-15 22:09:00,
2013-01-15 17:14:00,46.4,44.6,27.85,SE,143,0.8,1.6,93,0.08,,,1.28,WSDL version 420,2013-01-15 22:14:00,
2013-01-15 17:24:00,46.4,44.6,27.88,ENE,68,0.0,1.6,93,-99.99,,,-99.99,WSDL version 420,2013-01-15 22:24:00,
2013-01-15 17:29:00,46.4,44.6,27.88,ESE,113,0.9,1.3,93,0.08,,,1.28,WSDL version 420,2013-01-15 22:29:00,
2013-01-15 17:39:00,46.4,44.6,27.88,SSW,203,1.3,2.0,93,0.09,,,1.33,WSDL version 420,2013-01-15 22:39:00,
2013-01-15 17:44:00,46.4,44.6,27.88,South,173,0.0,2.0,93,0.09,,,1.33,WSDL version 420,2013-01-15 22:44:00,
2013-01-15 17:49:00,46.4,44.6,27.88,SSE,158,0.0,1.6,93,0.13,,,1.37,WSDL version 420,2013-01-15 22:49:00,
2013-01-15 17:54:00,46.5,44.7,27.91,SE,143,0.5,1.6,93,0.17,,,1.41,WSDL version 420,2013-01-15 22:54:00,
2013-01-15 17:59:00,46.6,44.8,27.91,SE,135,0.0,1.6,93,0.17,,,1.41,WSDL version 420,2013-01-15 22:59:00,
2013-01-15 18:04:00,46.6,44.8,27.91,East,90,0.3,1.6,93,0.21,,,1.45,WSDL version 420,2013-01-15 23:04:00,
2013-01-15 18:09:00,46.5,44.6,27.91,East,90,0.7,2.2,93,0.25,,,1.49,WSDL version 420,2013-01-15 23:09:00,
2013-01-15 18:14:00,46.4,44.6,27.91,SE,128,0.9,2.7,93,0.25,,,1.53,WSDL version 420,2013-01-15 23:14:00,
2013-01-15 18:19:00,46.2,44.7,27.91,ENE,68,0.0,2.7,94,0.25,,,1.53,WSDL version 420,2013-01-15 23:19:00,
2013-01-15 18:24:00,46.2,44.7,27.91,East,101,0.6,2.0,94,0.30,,,1.58,WSDL version 420,2013-01-15 23:24:00,
2013-01-15 18:29:00,46.0,44.5,27.91,NNE,23,0.0,2.0,94,0.30,,,1.58,WSDL version 420,2013-01-15 23:29:00,
2013-01-15 18:34:00,45.9,44.4,27.91,South,191,0.9,2.7,94,0.25,,,1.58,WSDL version 420,2013-01-15 23:34:00,
2013-01-15 18:39:00,45.9,44.4,27.88,SE,128,0.0,2.7,94,0.29,,,1.62,WSDL version 420,2013-01-15 23:39:00,
2013-01-15 18:44:00,45.9,44.4,27.88,East,83,0.0,0.9,94,0.29,,,1.62,WSDL version 420,2013-01-15 23:44:00,
2013-01-15 18:49:00,46.0,44.5,27.88,East,90,0.0,0.9,94,0.25,,,1.62,WSDL version 420,2013-01-15 23:49:00,
2013-01-15 18:54:00,46.0,44.5,27.88,South,173,1.0,2.2,94,0.21,,,1.62,WSDL version 420,2013-01-15 23:54:00,
2013-01-15 18:59:00,45.9,44.4,27.88,NE,53,1.3,2.5,94,0.25,,,1.66,WSDL version 420,2013-01-15 23:59:00,
2013-01-15 19:04:00,45.9,44.4,27.88,ESE,113,0.0,2.5,94,0.21,,,1.66,WSDL version 420,2013-01-16 00:04:00,
2013-01-15 19:09:00,46.0,44.5,27.88,ESE,113,0.0,2.5,94,0.17,,,1.66,WSDL version 420,2013-01-16 00:09:00,
2013-01-15 19:14:00,45.9,44.4,27.88,ENE,68,0.0,0.0,94,-99.99,,,-99.99,WSDL version 420,2013-01-16 00:14:00,
2013-01-15 19:19:00,45.9,44.4,27.88,East,101,1.0,2.0,94,0.17,,,1.70,WSDL version 420,2013-01-16 00:19:00,
2013-01-15 19:24:00,46.0,44.5,27.88,WSW,248,1.0,2.0,94,0.12,,,1.70,WSDL version 420,2013-01-16 00:24:00,
2013-01-15 19:29:00,46.0,44.5,27.88,NNW,338,0.0,1.3,94,0.12,,,1.70,WSDL version 420,2013-01-16 00:29:00,
2013-01-15 19:34:00,45.9,44.4,27.88,East,99,0.0,1.1,94,0.12,,,1.70,WSDL version 420,2013-01-16 00:34:00,
2013-01-15 19:39:00,45.7,44.2,27.88,North,353,0.0,1.1,94,0.08,,,1.70,WSDL version 420,2013-01-16 00:39:00,
2013-01-15 19:44:00,45.6,44.1,27.88,NNE,17,0.9,1.3,94,0.08,,,1.70,WSDL version 420,2013-01-16 00:44:00,
2013-01-15 19:49:00,45.5,44.0,27.88,East,83,0.4,1.3,94,0.08,,,1.70,WSDL version 420,2013-01-16 00:49:00,
2013-01-15 19:54:00,45.4,43.9,27.85,WSW,240,0.0,1.1,94,0.12,,,1.74,WSDL version 420,2013-01-16 00:54:00,
2013-01-15 19:59:00,45.4,43.9,27.85,ESE,113,0.9,2.5,94,0.08,,,1.74,WSDL version 420,2013-01-16 00:59:00,
2013-01-15 20:04:00,45.5,44.0,27.85,South,180,0.0,2.5,94,0.08,,,1.74,WSDL version 420,2013-01-16 01:04:00,
2013-01-15 20:09:00,45.5,44.0,27.85,East,101,0.0,0.9,94,0.08,,,1.74,WSDL version 420,2013-01-16 01:09:00,
2013-01-15 20:14:00,45.5,44.0,27.85,South,188,0.7,2.2,94,0.08,,,1.74,WSDL version 420,2013-01-16 01:14:00,
2013-01-15 20:19:00,45.5,44.0,27.85,South,173,0.0,2.2,94,0.04,,,1.74,WSDL version 420,2013-01-16 01:19:00,
2013-01-15 20:24:00,45.5,44.0,27.82,SE,128,0.0,1.1,94,0.04,,,1.74,WSDL version 420,2013-01-16 01:24:00,
2013-01-15 20:29:00,45.7,44.2,27.82,South,180,0.0,0.0,94,0.04,,,1.74,WSDL version 420,2013-01-16 01:29:00,
2013-01-15 20:34:00,45.6,44.1,27.82,ENE,62,0.0,0.0,94,0.04,,,1.74,WSDL version 420,2013-01-16 01:34:00,
2013-01-15 20:39:00,45.7,44.2,27.82,SSW,197,0.4,2.2,94,0.04,,,1.74,WSDL version 420,2013-01-16 01:39:00,
2013-01-15 20:44:00,45.7,44.2,27.82,SE,135,0.0,2.2,94,0.08,,,1.78,WSDL version 420,2013-01-16 01:44:00,
2013-01-15 20:49:00,45.9,44.4,27.82,SSE,165,0.0,1.6,94,0.08,,,1.78,WSDL version 420,2013-01-16 01:49:00,
2013-01-15 20:54:00,45.9,44.4,27.82,WSW,248,0.0,0.0,94,0.04,,,1.78,WSDL version 420,2013-01-16 01:54:00,
2013-01-15 20:59:00,45.9,44.4,27.82,West,270,0.0,0.0,94,0.04,,,1.78,WSDL version 420,2013-01-16 01:59:00,
2013-01-15 21:04:00,45.9,44.4,27.82,South,174,0.0,1.1,94,0.04,,,1.78,WSDL version 420,2013-01-16 02:04:00,
2013-01-15 21:09:00,45.9,44.4,27.82,SSE,158,0.0,1.1,94,0.04,,,1.78,WSDL version 420,2013-01-16 02:09:00,
2013-01-15 21:14:00,46.0,44.5,27.82,SSW,203,0.0,1.6,94,0.04,,,1.78,WSDL version 420,2013-01-16 02:14:00,
2013-01-15 21:19:00,46.2,44.7,27.82,NE,38,0.0,1.6,94,0.04,,,1.78,WSDL version 420,2013-01-16 02:19:00,
2013-01-15 21:24:00,46.2,44.7,27.82,SE,135,0.0,0.0,94,0.04,,,1.78,WSDL version 420,2013-01-16 02:24:00,
2013-01-15 21:29:00,46.2,44.7,27.82,ESE,118,0.8,1.1,94,0.04,,,1.78,WSDL version 420,2013-01-16 02:29:00,
2013-01-15 21:34:00,46.2,44.7,27.82,ENE,68,0.3,1.1,94,0.04,,,1.78,WSDL version 420,2013-01-16 02:34:00,
2013-01-15 21:39:00,46.2,44.7,27.82,ESE,113,0.0,1.3,94,0.04,,,1.78,WSDL version 420,2013-01-16 02:39:00,
2013-01-15 21:44:00,46.3,44.6,27.82,ESE,113,0.0,1.3,93,0.00,,,1.78,WSDL version 420,2013-01-16 02:44:00,
2013-01-15 21:49:00,46.4,44.6,27.82,SSE,158,0.0,0.0,93,0.00,,,1.78,WSDL version 420,2013-01-16 02:49:00,
2013-01-15 21:54:00,46.4,44.6,27.79,SSE,152,0.0,0.0,93,0.00,,,1.78,WSDL version 420,2013-01-16 02:54:00,
2013-01-15 21:59:00,46.4,44.8,27.79,South,180,0.7,1.1,94,0.00,,,1.78,WSDL version 420,2013-01-16 02:59:00,
2013-01-15 22:04:00,46.4,44.9,27.79,South,173,0.0,1.1,94,0.00,,,1.78,WSDL version 420,2013-01-16 03:04:00,
2013-01-15 22:09:00,46.6,45.1,27.82,SSE,158,0.0,1.3,94,0.04,,,1.82,WSDL version 420,2013-01-16 03:09:00,
2013-01-15 22:14:00,46.6,45.1,27.82,SSE,158,0.0,1.3,94,0.04,,,1.82,WSDL version 420,2013-01-16 03:14:00,
2013-01-15 22:19:00,46.8,45.3,27.82,SSE,150,0.0,0.0,94,0.04,,,1.82,WSDL version 420,2013-01-16 03:19:00,
2013-01-15 22:24:00,46.8,45.3,27.82,SE,135,0.0,0.0,94,0.04,,,1.82,WSDL version 420,2013-01-16 03:24:00,
2013-01-15 22:29:00,46.8,45.3,27.82,SSE,152,0.3,1.3,94,0.09,,,1.87,WSDL version 420,2013-01-16 03:29:00,
2013-01-15 22:34:00,46.8,45.3,27.82,South,180,0.0,1.3,94,0.09,,,1.87,WSDL version 420,2013-01-16 03:34:00,
2013-01-15 22:39:00,46.8,45.0,27.82,South,180,0.0,0.0,93,0.09,,,1.87,WSDL version 420,2013-01-16 03:39:00,
2013-01-15 22:44:00,46.8,45.0,27.82,South,180,0.0,0.0,94,0.09,,,1.87,WSDL version 420,2013-01-16 03:44:00,
2013-01-15 22:49:00,46.8,44.9,27.82,WSW,248,0.0,0.0,93,0.09,,,1.87,WSDL version 420,2013-01-16 03:49:00,
2013-01-15 22:54:00,46.8,44.9,27.82,WSW,248,0.0,0.0,93,0.09,,,1.87,WSDL version 420,2013-01-16 03:54:00,
2013-01-15 22:59:00,46.8,44.9,27.82,WSW,248,0.0,0.0,93,0.13,,,1.91,WSDL version 420,2013-01-16 03:59:00,
2013-01-15 23:04:00,46.8,45.1,27.82,West,270,0.0,0.0,94,0.13,,,1.91,WSDL version 420,2013-01-16 04:04:00,
2013-01-15 23:09:00,46.8,45.3,27.82,West,270,0.0,0.0,94,0.09,,,1.91,WSDL version 420,2013-01-16 04:09:00,
2013-01-15 23:19:00,46.8,45.3,27.82,West,270,0.0,0.0,94,0.09,,,1.91,WSDL version 420,2013-01-16 04:19:00,
2013-01-15 23:24:00,46.8,45.3,27.82,West,270,0.0,0.0,94,0.09,,,1.91,WSDL version 420,2013-01-16 04:24:00,
2013-01-15 23:29:00,46.9,45.3,27.82,West,270,0.0,0.0,94,0.04,,,1.91,WSDL version 420,2013-01-16 04:29:00,
2013-01-15 23:34:00,46.9,45.4,27.82,West,270,0.0,0.0,94,0.08,,,1.95,WSDL version 420,2013-01-16 04:34:00,
2013-01-15 23:39:00,46.9,45.4,27.82,West,270,0.0,0.0,94,0.08,,,1.95,WSDL version 420,2013-01-16 04:39:00,
2013-01-15 23:44:00,46.9,45.4,27.82,West,270,0.0,0.0,94,0.08,,,1.95,WSDL version 420,2013-01-16 04:44:00,
2013-01-15 23:49:00,46.9,45.4,27.82,West,270,0.0,0.0,94,0.08,,,1.95,WSDL version 420,2013-01-16 04:49:00,
2013-01-15 23:54:00,46.9,45.4,27.82,WNW,293,0.0,0.0,94,0.12,,,1.99,WSDL version 420,2013-01-16 04:54:00,
2013-01-15 23:59:00,46.9,45.3,27.82,WNW,293,0.0,0.0,94,0.08,,,1.99,WSDL version 420,2013-01-16 04:59:00,